Total_Precipitation_Accumulation
0.76 0.78 0.73 0.77 0.69 0.67 0.74 0.81 0.80 0.81 0.72 0.59 0.54 0.54 0.60 0.52 0.47 0.50 0.59 0.67 0.87 1.01 1.05 0.91 0.73 0.66 0.64 0.62 0.64 0.74 0.80 0.82 0.82 0.80 0.66 0.55 0.47 0.41 0.32 0.30 0.30 0.30 0.30
0.81 0.86 0.83 0.82 0.79 0.73 0.75 0.90 0.84 0.88 0.85 0.77 0.60 0.57 0.58 0.54 0.49 0.49 0.56 0.78 0.87 0.88 1.06 1.18 1.03 0.88 0.77 0.70 0.66 0.74 0.77 0.76 0.72 0.74 0.69 0.54 0.42 0.36 0.28 0.26 0.27 0.28 0.29
0.77 0.82 0.85 0.82 0.81 0.82 0.81 0.86 0.88 0.93 0.83 0.76 0.68 0.61 0.57 0.51 0.47 0.48 0.49 0.54 0.53 0.60 0.78 1.00 1.12 1.02 0.92 0.84 0.77 0.69 0.66 0.63 0.64 0.68 0.71 0.57 0.44 0.36 0.31 0.29 0.28 0.27 0.25
0.84 0.84 0.90 0.91 0.95 0.98 0.95 0.95 0.98 0.99 0.93 0.89 0.84 0.76 0.59 0.57 0.52 0.54 0.51 0.49 0.48 0.42 0.55 0.64 0.80 0.90 0.98 1.00 0.98 0.80 0.67 0.54 0.50 0.59 0.68 0.61 0.48 0.39 0.36 0.36 0.32 0.29 0.23
0.91 1.03 1.06 1.11 1.08 1.09 1.11 1.08 1.08 1.00 0.98 0.95 0.86 0.81 0.70 0.66 0.61 0.53 0.60 0.58 0.53 0.44 0.48 0.45 0.50 0.54 0.65 0.80 0.91 0.93 0.77 0.57 0.44 0.47 0.52 0.53 0.46 0.41 0.41 0.39 0.33 0.29 0.24
1.22 1.36 1.45 1.39 1.37 1.36 1.33 1.28 1.35 1.24 1.05 1.02 0.96 0.84 0.70 0.65 0.68 0.62 0.64 0.63 0.59 0.52 0.49 0.42 0.39 0.34 0.37 0.49 0.61 0.77 0.78 0.68 0.54 0.46 0.47 0.46 0.41 0.36 0.39 0.42 0.39 0.35 0.31
1.61 1.72 1.65 1.72 1.74 1.59 1.58 1.63 1.67 1.61 1.34 1.20 1.24 1.09 0.83 0.62 0.66 0.66 0.65 0.65 0.65 0.66 0.69 0.62 0.48 0.40 0.33 0.33 0.35 0.53 0.71 0.79 0.77 0.62 0.54 0.51 0.46 0.35 0.32 0.35 0.36 0.38 0.39
1.84 1.88 1.95 2.01 2.03 2.00 1.95 1.83 1.89 1.96 1.71 1.48 1.55 1.78 1.37 0.98 0.68 0.56 0.63 0.63 0.68 0.74 0.77 0.73 0.59 0.51 0.41 0.41 0.25 0.32 0.48 0.72 0.86 0.81 0.68 0.62 0.53 0.38 0.33 0.32 0.33 0.34 0.39
2.07 2.10 2.15 2.21 2.19 2.03 2.01 2.09 2.17 2.47 2.26 1.90 1.74 1.95 1.69 1.36 1.08 0.71 0.63 0.67 0.71 0.77 0.83 0.91 0.83 0.76 0.66 0.57 0.48 0.31 0.25 0.38 0.67 0.86 0.85 0.74 0.63 0.48 0.39 0.36 0.35 0.37 0.38
2.01 2.12 2.13 2.12 2.08 2.00 2.06 2.11 2.13 2.47 2.62 2.31 2.02 1.70 1.45 1.38 1.39 1.09 0.79 0.74 0.80 0.75 0.76 0.83 0.84 0.93 0.92 0.82 0.72 0.47 0.30 0.26 0.45 0.75 0.95 1.00 0.84 0.66 0.50 0.44 0.41 0.41 0.41
1.87 1.90 1.93 2.01 2.03 2.06 2.10 2.24 2.33 2.54 2.54 2.51 2.33 2.17 1.94 1.61 1.26 1.25 1.18 0.96 0.90 0.79 0.80 0.86 0.92 1.04 1.04 1.00 1.01 0.74 0.48 0.30 0.34 0.60 0.89 1.08 1.06 0.91 0.76 0.62 0.54 0.48 0.46
1.85 1.78 1.76 1.82 1.94 2.09 2.14 2.20 2.31 2.53 2.63 2.69 2.59 2.35 2.21 2.04 1.73 1.57 1.31 1.18 1.14 0.97 0.92 0.89 0.90 0.98 1.11 1.13 1.07 1.15 0.87 0.50 0.32 0.41 0.62 0.89 1.13 1.17 1.05 0.95 0.84 0.72 0.64
1.55 1.57 1.65 1.74 1.87 1.99 2.07 2.16 2.29 2.31 2.42 2.66 2.66 2.48 2.26 2.05 1.99 1.84 1.68 1.38 1.20 1.02 0.98 0.94 0.88 0.87 0.90 1.05 1.14 1.25 1.01 0.71 0.46 0.36 0.32 0.39 0.61 0.90 1.10 1.09 1.08 1.06 0.99
1.44 1.37 1.42 1.52 1.74 1.94 2.02 2.10 2.12 2.08 2.13 2.30 2.31 2.36 2.31 2.04 1.97 1.82 1.75 1.80 1.53 1.31 1.10 0.91 0.82 0.82 0.82 0.92 1.10 1.21 0.89 0.77 0.59 0.44 0.36 0.31 0.32 0.42 0.63 0.91 1.08 1.16 1.20
1.24 1.18 1.20 1.24 1.36 1.59 1.85 2.01 1.94 1.86 1.83 1.96 2.01 2.11 2.22 2.22 2.13 2.01 1.96 1.96 1.85 1.59 1.37 1.14 0.94 0.81 0.82 0.88 1.07 0.95 0.83 0.80 0.71 0.58 0.45 0.38 0.33 0.34 0.38 0.47 0.63 0.77 0.95
1.04 1.04 1.02 1.07 1.20 1.31 1.52 1.75 1.84 1.79 1.75 1.79 1.89 2.02 2.13 2.22 2.27 2.08 2.02 1.98 1.81 1.65 1.48 1.19 0.99 0.88 0.92 0.89 1.05 0.92 0.89 0.98 0.79 0.67 0.56 0.47 0.39 0.36 0.37 0.37 0.37 0.39 0.43
0.79 0.82 0.96 1.04 1.12 1.19 1.36 1.62 1.80 1.80 1.72 1.71 1.70 1.77 1.91 2.00 2.23 2.20 2.11 2.00 1.84 1.65 1.48 1.31 1.10 0.90 0.97 1.03 1.05 1.00 0.92 0.87 0.73 0.70 0.60 0.51 0.46 0.43 0.40 0.41 0.40 0.37 0.36
0.55 0.66 0.78 0.84 0.89 0.94 1.12 1.40 1.60 1.64 1.59 1.49 1.48 1.58 1.79 1.96 2.17 2.27 2.21 2.07 1.94 1.80 1.68 1.58 1.40 1.14 1.02 1.06 1.15 1.18 1.10 1.04 0.97 0.94 0.80 0.63 0.53 0.50 0.47 0.45 0.45 0.42 0.38
0.57 0.66 0.76 0.81 0.84 0.90 0.93 1.03 1.19 1.31 1.30 1.24 1.27 1.31 1.37 1.54 1.79 1.98 2.03 2.05 2.07 2.03 1.96 1.80 1.58 1.40 1.23 1.11 1.15 1.17 1.12 1.17 1.10 1.12 1.08 0.91 0.77 0.70 0.63 0.58 0.51 0.47 0.43
0.51 0.58 0.62 0.70 0.79 0.84 0.84 0.84 0.88 0.97 0.98 1.01 1.06 1.13 1.17 1.19 1.36 1.53 1.65 1.86 2.07 2.07 2.05 1.96 1.74 1.52 1.36 1.23 1.25 1.27 1.27 1.25 1.21 1.08 1.07 0.99 0.92 0.83 0.73 0.64 0.57 0.52 0.48
0.42 0.48 0.54 0.57 0.64 0.71 0.76 0.78 0.68 0.67 0.74 0.82 0.87 0.87 0.90 0.97 1.08 1.17 1.23 1.55 1.87 2.01 1.97 1.92 1.80 1.65 1.43 1.30 1.18 1.15 1.26 1.44 1.43 1.35 1.30 1.11 0.99 0.88 0.79 0.73 0.67 0.61 0.57
0.39 0.44 0.45 0.47 0.57 0.58 0.69 0.67 0.52 0.52 0.56 0.67 0.77 0.78 0.69 0.70 0.75 0.82 0.89 1.06 1.31 1.52 1.74 1.88 1.83 1.64 1.46 1.33 1.25 1.25 1.27 1.34 1.41 1.32 1.37 1.40 1.29 1.19 1.08 0.96 0.93 0.88 0.78
0.35 0.38 0.39 0.40 0.46 0.58 0.58 0.42 0.41 0.45 0.53 0.59 0.67 0.75 0.69 0.59 0.65 0.70 0.80 0.87 0.89 0.95 1.20 1.49 1.61 1.58 1.63 1.47 1.40 1.31 1.25 1.29 1.32 1.29 1.35 1.37 1.39 1.33 1.26 1.21 1.24 1.15 1.03
0.42 0.42 0.44 0.44 0.44 0.49 0.46 0.33 0.34 0.39 0.46 0.53 0.63 0.73 0.79 0.71 0.70 0.80 0.81 0.83 0.79 0.74 0.91 0.93 1.09 1.36 1.49 1.54 1.49 1.53 1.65 1.58 1.42 1.30 1.22 1.21 1.19 1.22 1.23 1.22 1.26 1.15 1.05
0.42 0.45 0.48 0.48 0.43 0.40 0.39 0.30 0.29 0.38 0.46 0.53 0.56 0.62 0.70 0.67 0.79 0.87 0.87 0.98 0.96 0.85 0.96 1.00 1.04 1.05 1.13 1.23 1.33 1.39 1.46 1.53 1.50 1.37 1.15 1.03 1.00 1.02 1.07 1.07 1.05 1.05 1.00
0.25 0.32 0.34 0.38 0.41 0.39 0.46 0.33 0.32 0.38 0.49 0.60 0.64 0.63 0.76 0.75 0.78 0.77 0.75 0.96 0.99 0.89 0.81 0.86 0.86 0.82 0.75 0.82 0.98 1.14 1.32 1.38 1.35 1.26 1.04 0.90 0.88 0.91 0.90 0.78 0.69 0.69 0.70